| time (UTC) | temp F | wind direction | speed MPH | gust MPH | rain 1hr in | rain 24hr in | rain mn in | humidity % | barometer mb |
| 20260504213516 | 71 | 225 | 2.0 | 6.0 | 0.00 | 0.00 | 0.00 | 30 | 1005.7 |
| 20260504212517 | 71 | 203 | 7.0 | 14.0 | 0.00 | 0.00 | 0.00 | 31 | 1005.7 |
| 20260504211517 | 71 | 270 | 4.0 | 17.0 | 0.00 | 0.00 | 0.00 | 30 | 1005.7 |
| 20260504210517 | 72 | 225 | 3.0 | 8.0 | 0.00 | 0.00 | 0.00 | 31 | 1005.8 |
| 20260504205517 | 72 | 203 | 4.0 | 8.0 | 0.00 | 0.00 | 0.00 | 29 | 1005.7 |
| 20260504204517 | 72 | 225 | 4.0 | 12.0 | 0.00 | 0.00 | 0.00 | 30 | 1005.7 |
| 20260504203517 | 72 | 203 | 3.0 | 7.0 | 0.00 | 0.00 | 0.00 | 30 | 1005.8 |
| 20260504202517 | 72 | 225 | 5.0 | 16.0 | 0.00 | 0.00 | 0.00 | 30 | 1005.7 |
| 20260504201517 | 72 | 68 | 3.0 | 10.0 | 0.00 | 0.00 | 0.00 | 31 | 1005.7 |
| 20260504200557 | 71 | 248 | 4.0 | 11.0 | 0.00 | 0.00 | 0.00 | 30 | 1005.7 |
| 20260504195537 | 70 | 248 | 3.0 | 11.0 | 0.00 | 0.00 | 0.00 | 31 | 1005.8 |
| 20260504194517 | 70 | 180 | 3.0 | 8.0 | 0.00 | 0.00 | 0.00 | 30 | 1005.9 |
| 20260504193518 | 70 | 225 | 4.0 | 9.0 | 0.00 | 0.00 | 0.00 | 30 | 1005.9 |
| 20260504192517 | 71 | 225 | 6.0 | 15.0 | 0.00 | 0.00 | 0.00 | 28 | 1005.7 |
| 20260504191517 | 72 | 203 | 4.0 | 12.0 | 0.00 | 0.00 | 0.00 | 28 | 1006.0 |
| 20260504190517 | 72 | 203 | 4.0 | 10.0 | 0.00 | 0.00 | 0.00 | 28 | 1006.1 |
| 20260504185517 | 73 | 225 | 5.0 | 22.0 | 0.00 | 0.00 | 0.00 | 28 | 1006.2 |
| 20260504184517 | 72 | 225 | 6.0 | 17.0 | 0.00 | 0.00 | 0.00 | 28 | 1006.2 |
| 20260504183517 | 72 | 270 | 5.0 | 17.0 | 0.00 | 0.00 | 0.00 | 28 | 1006.6 |
| 20260504182557 | 72 | 248 | 4.0 | 12.0 | 0.00 | 0.00 | 0.00 | 29 | 1006.4 |
| 20260504181517 | 71 | 225 | 6.0 | 14.0 | 0.00 | 0.00 | 0.00 | 28 | 1006.5 |
| 20260504180517 | 72 | 225 | 5.0 | 14.0 | 0.00 | 0.00 | 0.00 | 28 | 1006.4 |
| 20260504175517 | 72 | 248 | 4.0 | 9.0 | 0.00 | 0.00 | 0.00 | 29 | 1006.5 |
| 20260504174517 | 70 | 203 | 4.0 | 13.0 | 0.00 | 0.00 | 0.00 | 29 | 1006.5 |
| 20260504173516 | 70 | 270 | 5.0 | 15.0 | 0.00 | 0.00 | 0.00 | 28 | 1006.9 |
| 20260504172517 | 70 | 270 | 5.0 | 11.0 | 0.00 | 0.00 | 0.00 | 29 | 1007.0 |
| 20260504171537 | 70 | 248 | 5.0 | 14.0 | 0.00 | 0.00 | 0.00 | 28 | 1006.9 |
| 20260504170517 | 69 | 225 | 7.0 | 14.0 | 0.00 | 0.00 | 0.00 | 30 | 1007.0 |
| 20260504150537 | 66 | 203 | 7.0 | 18.0 | 0.00 | 0.00 | 0.00 | 35 | 1008.2 |
| 20260504140517 | 62 | 225 | 4.0 | 9.0 | 0.00 | 0.00 | 0.00 | 40 | 1008.7 |
| 20260504130517 | 57 | 203 | 5.0 | 15.0 | 0.00 | 0.00 | 0.00 | 46 | 1009.4 |
| 20260504110516 | 48 | 203 | 4.0 | 8.0 | 0.00 | 0.00 | 0.00 | 58 | 1009.8 |
| 20260504100516 | 42 | 23 | 1.0 | 3.0 | 0.00 | 0.00 | 0.00 | 80 | 1009.9 |
| 20260504081516 | 41 | 45 | 1.0 | 2.0 | 0.00 | 0.00 | 0.00 | 80 | 1009.9 |
| 20260504080516 | 41 | 0.0 | 2.0 | 0.00 | 0.00 | 0.00 | 80 | 1009.8 | |
| 20260504050518 | 35 | 0.0 | 0.0 | 0.00 | 0.00 | 0.00 | 87 | 1009.7 | |
| 20260504045559 | 34 | 0.0 | 0.0 | 0.00 | 0.00 | 0.00 | 87 | 1009.7 | |
| 20260504044538 | 34 | 0.0 | 0.0 | 0.00 | 0.00 | 0.00 | 86 | 1009.7 | |
| 20260504043538 | 34 | 0.0 | 0.0 | 0.00 | 0.00 | 0.00 | 86 | 1009.7 | |
| 20260504042518 | 34 | 0.0 | 0.0 | 0.00 | 0.00 | 0.00 | 85 | 1009.7 | |
| 20260504041518 | 34 | 0.0 | 0.0 | 0.00 | 0.00 | 0.00 | 85 | 1009.6 | |
| 20260504040518 | 34 | 0.0 | 0.0 | 0.00 | 0.00 | 0.00 | 84 | 1009.5 | |
| 20260504035516 | 34 | 0.0 | 0.0 | 0.00 | 0.00 | 0.00 | 83 | 1009.5 | |
| 20260504034516 | 35 | 0.0 | 0.0 | 0.00 | 0.00 | 0.00 | 82 | 1009.3 | |
| 20260504033536 | 35 | 0.0 | 0.0 | 0.00 | 0.00 | 0.00 | 82 | 1009.3 | |
| 20260504032516 | 35 | 0.0 | 0.0 | 0.00 | 0.00 | 0.00 | 81 | 1009.3 | |
| 20260504031516 | 36 | 0.0 | 0.0 | 0.00 | 0.00 | 0.00 | 80 | 1009.2 | |
| 20260504030516 | 36 | 0.0 | 0.0 | 0.00 | 0.00 | 0.00 | 79 | 1009.2 | |
| 20260504025516 | 36 | 0.0 | 0.0 | 0.00 | 0.00 | 0.00 | 79 | 1009.1 | |
| 20260504024537 | 37 | 0.0 | 0.0 | 0.00 | 0.00 | 0.00 | 78 | 1009.1 | |
| 20260504023517 | 37 | 0.0 | 0.0 | 0.00 | 0.00 | 0.00 | 78 | 1009.1 | |
| 20260504022516 | 37 | 0.0 | 0.0 | 0.00 | 0.00 | 0.00 | 77 | 1009.0 | |
| 20260504021516 | 38 | 0.0 | 0.0 | 0.00 | 0.00 | 0.00 | 76 | 1009.0 | |
| 20260504020516 | 38 | 0.0 | 0.0 | 0.00 | 0.00 | 0.00 | 74 | 1009.0 | |
| 20260504015516 | 38 | 0.0 | 0.0 | 0.00 | 0.00 | 0.00 | 72 | 1009.0 | |
| 20260504014516 | 39 | 0.0 | 0.0 | 0.00 | 0.00 | 0.00 | 71 | 1008.9 | |
| 20260504013516 | 39 | 0.0 | 0.0 | 0.00 | 0.00 | 0.00 | 70 | 1008.8 | |
| 20260504012516 | 40 | 0.0 | 0.0 | 0.00 | 0.00 | 0.00 | 68 | 1008.7 | |
| 20260504011517 | 41 | 0.0 | 0.0 | 0.00 | 0.00 | 0.00 | 67 | 1008.6 | |
| 20260504010516 | 41 | 0.0 | 0.0 | 0.00 | 0.00 | 0.00 | 66 | 1008.5 | |
| 20260504005516 | 42 | 0.0 | 0.0 | 0.00 | 0.00 | 0.00 | 64 | 1008.4 | |
| 20260504004516 | 42 | 0.0 | 0.0 | 0.00 | 0.00 | 0.00 | 61 | 1008.3 | |
| 20260504003516 | 43 | 0.0 | 1.0 | 0.00 | 0.00 | 0.00 | 60 | 1008.1 | |
| 20260504002516 | 44 | 0.0 | 0.0 | 0.00 | 0.00 | 0.00 | 57 | 1008.1 | |
| 20260504001516 | 45 | 0.0 | 0.0 | 0.00 | 0.00 | 0.00 | 55 | 1007.9 | |
| 20260504000536 | 46 | 0.0 | 0.0 | 0.00 | 0.00 | 0.00 | 54 | 1007.9 | |
| 20260503235516 | 47 | 0.0 | 1.0 | 0.00 | 0.00 | 0.00 | 51 | 1007.9 | |
| 20260503234516 | 48 | 23 | 1.0 | 3.0 | 0.00 | 0.00 | 0.00 | 48 | 1007.7 |
| 20260503233516 | 49 | 315 | 1.0 | 4.0 | 0.00 | 0.00 | 0.00 | 45 | 1007.6 |
| 20260503232516 | 49 | 68 | 1.0 | 4.0 | 0.00 | 0.00 | 0.00 | 46 | 1007.6 |
| 20260503231516 | 50 | 270 | 2.0 | 11.0 | 0.00 | 0.00 | 0.00 | 44 | 1007.5 |
| 20260503230557 | 50 | 0 | 3.0 | 9.0 | 0.00 | 0.00 | 0.00 | 42 | 1007.4 |
| 20260503225516 | 50 | 45 | 3.0 | 12.0 | 0.00 | 0.00 | 0.00 | 42 | 1007.4 |
| 20260503224516 | 51 | 315 | 5.0 | 13.0 | 0.00 | 0.00 | 0.00 | 42 | 1007.1 |
| 20260503223516 | 51 | 90 | 3.0 | 8.0 | 0.00 | 0.00 | 0.00 | 41 | 1007.0 |
| 20260503222516 | 51 | 315 | 3.0 | 7.0 | 0.00 | 0.00 | 0.00 | 40 | 1007.0 |
| 20260503221517 | 52 | 315 | 3.0 | 13.0 | 0.00 | 0.00 | 0.00 | 40 | 1006.9 |
| 20260503220516 | 52 | 315 | 3.0 | 10.0 | 0.00 | 0.00 | 0.00 | 39 | 1006.7 |
| 20260503215516 | 52 | 45 | 2.0 | 6.0 | 0.00 | 0.00 | 0.00 | 40 | 1006.6 |
| 20260503214516 | 52 | 23 | 4.0 | 10.0 | 0.00 | 0.00 | 0.00 | 38 | 1006.5 |